Location: Bidart
(43.4376°N, 1.5913°W)
Time: 05:04:32
(UTC+00:00)

H-2A DEB - Pass Details

Date: 17 April 2026
Orbit: 584 x 592 km, 98.2° (Epoch: 15 May)

Event Time Altitude Azimuth Distance (km) Brightness Sun altitude
Exits shadow 00:20:45 11° 42° (NE) 1,862 ? -36.0°
Drops below altitude 10° 00:21:10 10° 36° (NE) 1,927 ? -36.0°
Sets 00:24:30 0° 7° (N) 2,836 ? -36.0°
